This is the latest recevied weather packets stored in our database for station/object K5MGY. If no packets are shown the sender has not sent any weather packets the latest 10 day(s).
| Time | Temp. | Humidity | Pressure | Rain* | Wind** | Luminosity | Snow |
|---|---|---|---|---|---|---|---|
| 1788472533 | 33.33° C | 56% | 1034.8 hPa | 0 mm | - | 86 W/m² | - |
| 1788472232 | 33.33° C | 56% | 1034.8 hPa | 0 mm | - | 88 W/m² | - |
| 1788471932 | 33.89° C | 56% | 1034.9 hPa | 0 mm | - | 94 W/m² | - |
| 1788471627 | 33.33° C | 56% | 1034.8 hPa | 0 mm | - | 162 W/m² | - |
| 1788471323 | 33.89° C | 56% | 1035.1 hPa | 0 mm | - | 85 W/m² | - |
| 1788471018 | 33.33° C | 56% | 1035.1 hPa | 0 mm | - | 242 W/m² | - |
| 1788470715 | 33.33° C | 56% | 1035.2 hPa | 0 mm | - | 401 W/m² | - |
| 1788470415 | 32.78° C | 58% | 1035.2 hPa | 0 mm | - | 484 W/m² | - |
| 1788470110 | 32.78° C | 58% | 1035.3 hPa | 0 mm | - | 249 W/m² | - |
| 1788469807 | 32.78° C | 59% | 1035.3 hPa | 0 mm | - | 184 W/m² | - |
| 1788469506 | 32.78° C | 58% | 1035.4 hPa | 0 mm | - | 129 W/m² | - |
| 1788469202 | 32.78° C | 58% | 1035.6 hPa | 0 mm | - | 121 W/m² | - |
| 1788468896 | 33.33° C | 58% | 1035.7 hPa | 0 mm | - | 464 W/m² | - |
| 1788468596 | 33.33° C | 58% | 1035.6 hPa | 0 mm | - | 555 W/m² | - |
| 1788468293 | 33.33° C | 58% | 1035.7 hPa | 0 mm | - | 225 W/m² | - |
| 1788467988 | 32.78° C | 59% | 1035.7 hPa | 0 mm | - | 346 W/m² | - |
| 1788467683 | 32.78° C | 58% | 1035.8 hPa | 0 mm | - | 614 W/m² | - |
| 1788467383 | 32.22° C | 61% | 1035.9 hPa | 0 mm | - | 378 W/m² | - |
| 1788467079 | 32.22° C | 60% | 1035.8 hPa | 0 mm | - | 320 W/m² | - |
| 1788466779 | 32.22° C | 60% | 1035.9 hPa | 0 mm | - | 297 W/m² | - |
| 1788466474 | 32.22° C | 60% | 1035.9 hPa | 0 mm | - | 263 W/m² | - |
| 1788466173 | 32.22° C | 61% | 1036 hPa | 0 mm | - | 246 W/m² | - |
| 1788465868 | 32.22° C | 61% | 1035.9 hPa | 0 mm | - | 267 W/m² | - |
| 1788465564 | 32.78° C | 61% | 1035.9 hPa | 0 mm | - | 278 W/m² | - |
| 1788465260 | 32.22° C | 62% | 1035.9 hPa | 0 mm | - | 301 W/m² | - |
* Rain latest hour (hover to see other rain measurements)
** Current wind speed in m/s (hover to see current wind gust speed)